NOAA 20 (JPSS-1) (43013 NORAD) Tracking and Keplerian Element Data

This shows tracking and keplerian element data for the satellite.

Feedback or suggestion? Click here.




ElementValue
Catalog43013
NameNOAA 20 (JPSS-1)
Epoch Orbit35759
Epoch Day286.83900524
Epoch Year2024
RAAN222.817
Inclination98.7141
Eccentricity6.93E-05
Argument of Perigee166.0485
Mean Anonmoly194.071
Mean Motion14.19536983
Decay Rate5.45E-06
L11 43013U 17073A 24286.83900524 .00000545 00000+0 27900-3 0 9996
L22 43013 98.7141 222.8170 0000693 166.0485 194.0710 14.19536983357593



Live tracking and technical data element details for NOAA 20 (JPSS-1) (NORAD 43013). NOAA 20 (JPSS-1) can be tracked NOW for your location showing map with azimuth and elevation plus other details from your city location.







IsCatalogInMostPopularTable: catalog: 43013, numindb: 1243
Update: records affected: 1



GetName: 43013 NOAA 20 (JPSS-1)

Hit Count: updated at: Thu, 23 Jan 2025 13:06:38 GMT